This is the latest recevied weather packets stored in our database for station/object EA1FBN. If no packets are shown the sender has not sent any weather packets the latest 1 day(s).
| Time | Temp. | Humidity | Pressure | Rain* | Wind** | Luminosity | Snow |
|---|---|---|---|---|---|---|---|
| 1777977010 | 10° C | 68% | 1015.9 hPa | 0 mm | 3.13 m/s, 114° | - | - |
| 1777976710 | 10° C | 67% | 1015.9 hPa | 0 mm | 3.13 m/s, 135° | - | - |
| 1777976410 | 10° C | 71% | 1015.9 hPa | 0 mm | 3.58 m/s, 71° | - | - |
| 1777976110 | 10° C | 67% | 1015.9 hPa | 0 mm | 4.02 m/s, 122° | - | - |
| 1777975810 | 10° C | 66% | 1015.9 hPa | 0 mm | 4.02 m/s, 105° | - | - |
| 1777975510 | 10.56° C | 67% | 1015.9 hPa | 0 mm | 3.13 m/s, 101° | - | - |
| 1777975210 | 10° C | 70% | 1015.9 hPa | 0 mm | 3.13 m/s, 93° | - | - |
| 1777974910 | 9.44° C | 68% | 1015.9 hPa | 0 mm | 4.47 m/s, 122° | - | - |
| 1777974610 | 10° C | 67% | 1015.9 hPa | 0 mm | 4.02 m/s, 98° | - | - |
| 1777974310 | 10° C | 70% | 1015.9 hPa | 0 mm | 3.58 m/s, 133° | - | - |
| 1777974010 | 9.44° C | 70% | 1015.9 hPa | 0 mm | 4.02 m/s, 136° | - | - |
| 1777973710 | 9.44° C | 72% | 1016 hPa | 0 mm | 4.02 m/s, 131° | - | - |
| 1777973410 | 9.44° C | 71% | 1015.9 hPa | 0 mm | 3.58 m/s, 129° | - | - |
| 1777973110 | 9.44° C | 72% | 1015.8 hPa | 0 mm | 3.13 m/s, 24° | - | - |
| 1777972810 | 9.44° C | 73% | 1015.8 hPa | 0 mm | 3.13 m/s, 135° | - | - |
| 1777972510 | 8.89° C | 74% | 1016 hPa | 0 mm | 2.68 m/s, 117° | - | - |
| 1777972210 | 8.89° C | 74% | 1015.9 hPa | 0 mm | 2.68 m/s, 125° | - | - |
| 1777971910 | 8.89° C | 74% | 1016 hPa | 0 mm | 3.13 m/s, 128° | - | - |
| 1777971610 | 8.89° C | 74% | 1016 hPa | 0 mm | 3.13 m/s, 115° | - | - |
| 1777971310 | 8.89° C | 74% | 1015.9 hPa | 0 mm | 2.68 m/s, 141° | - | - |
| 1777971010 | 8.89° C | 75% | 1015.9 hPa | 0.25 mm | 2.24 m/s, 128° | - | - |
| 1777970710 | 8.33° C | 75% | 1015.9 hPa | 0.25 mm | 2.68 m/s, 111° | - | - |
| 1777970410 | 8.33° C | 75% | 1016 hPa | 0.25 mm | 3.13 m/s, 152° | - | - |
| 1777970110 | 8.33° C | 75% | 1016.1 hPa | 0.25 mm | 3.13 m/s, 110° | - | - |
| 1777969810 | 8.33° C | 75% | 1016.1 hPa | 0.25 mm | 3.13 m/s, 83° | - | - |
* Rain latest hour (hover to see other rain measurements)
** Current wind speed in m/s (hover to see current wind gust speed)